WetterOnline ( https://www.wetteronline.de )

Wetter aktuell Rodenbach

Aktuelles Wetter: Offenbach (119m)

6-stündlich | Neueste Meldungen
Ortszeit Temperatur Wetter
So, 15.05. 8:00 13.9° C leicht bewölkt
So, 15.05. 2:00 11.3° C fast wolkenlos
Sa, 14.05. 20:00 22.6° C leicht bewölkt
Sa, 14.05. 14:00 22.3° C wolkenlos
Sa, 14.05. 8:00 12.2° C wolkenlos
Sa, 14.05. 2:00 10.0° C leicht bewölkt
Fr, 13.05. 20:00 20.5° C leicht bewölkt
Fr, 13.05. 14:00 19.0° C leicht bewölkt
Ortszeit Temperatur Wetter
So, 15.05. 12:30 22.3° C wolkig
So, 15.05. 12:20 22.3° C wolkig
So, 15.05. 12:10 22.1° C bedeckt
So, 15.05. 12:00 21.9° C leicht bewölkt
So, 15.05. 11:50 21.9° C wolkig
So, 15.05. 11:40 21.3° C bewölkt
So, 15.05. 11:30 21.0° C wolkig
So, 15.05. 11:00 19.9° C leicht bewölkt
So, 15.05. 10:30 19.2° C wolkig
So, 15.05. 10:00 18.4° C leicht bewölkt
So, 15.05. 9:30 17.8° C wolkig
Ortszeit Relative Feuchte Sichtweite
So, 15.05. 8:00 68% 35 km
So, 15.05. 2:00 79% 40 km
Sa, 14.05. 20:00 34% 55 km
Sa, 14.05. 14:00 38% 65 km
Sa, 14.05. 8:00 72% 35 km
Sa, 14.05. 2:00 84% 45 km
Fr, 13.05. 20:00 39% 55 km
Fr, 13.05. 14:00 41% >70 km
Ortszeit Relative Feuchte Sichtweite
So, 15.05. 12:30 42% 40 km
So, 15.05. 12:20 42% -
So, 15.05. 12:10 44% -
So, 15.05. 12:00 46% 40 km
So, 15.05. 11:50 46% -
So, 15.05. 11:40 45% -
So, 15.05. 11:30 48% 50 km
So, 15.05. 11:00 50% 40 km
So, 15.05. 10:30 50% >70 km
So, 15.05. 10:00 54% 65 km
So, 15.05. 9:30 57% 40 km
Ortszeit Niederschlagsmenge Niederschlagsart
So, 15.05. 8:00 0.0 l/m2 in 12 Std. -
So, 15.05. 2:00 0.0 l/m2 in 6 Std. -
Sa, 14.05. 20:00 0.0 l/m2 in 12 Std. -
Sa, 14.05. 14:00 0.0 l/m2 in 6 Std. -
Sa, 14.05. 8:00 0.0 l/m2 in 12 Std. -
Sa, 14.05. 2:00 0.0 l/m2 in 6 Std. -
Fr, 13.05. 20:00 0.0 l/m2 in 12 Std. -
Fr, 13.05. 14:00 0.0 l/m2 in 6 Std. -
Ortszeit Niederschlagsmenge Niederschlagsart
So, 15.05. 12:30 0.0 l/m2 in 1 Std. -
So, 15.05. 12:20 keine Meldung -
So, 15.05. 12:10 keine Meldung -
So, 15.05. 12:00 0.0 l/m2 in 1 Std. -
So, 15.05. 11:50 keine Meldung -
So, 15.05. 11:40 keine Meldung -
So, 15.05. 11:30 0.0 l/m2 in 1 Std. -
So, 15.05. 11:00 0.0 l/m2 in 1 Std. -
So, 15.05. 10:30 0.0 l/m2 in 1 Std. -
So, 15.05. 10:00 0.0 l/m2 in 1 Std. -
So, 15.05. 9:30 0.0 l/m2 in 1 Std. -
Ortszeit Stärke Spitze Richtung
km/h Bft. km/h Grad Sektor
So, 15.05. 8:00 4 1 11 40° NO
So, 15.05. 2:00 4 1 18 20° N
Sa, 14.05. 20:00 7 2 22 10° N
Sa, 14.05. 14:00 11 2 29 230° SW
Sa, 14.05. 8:00 0 0 11 - -
Sa, 14.05. 2:00 2 1 11 130° SO
Fr, 13.05. 20:00 6 1 26 240° SW
Fr, 13.05. 14:00 13 3 39 290° W
Ortszeit Stärke Spitze Richtung
km/h Bft. km/h Grad Sektor
So, 15.05. 12:30 7 2 18 40° NO
So, 15.05. 12:20 7 2 - 40° NO
So, 15.05. 12:10 7 2 - 40° NO
So, 15.05. 12:00 7 2 14 80° O
So, 15.05. 11:50 7 2 - 80° O
So, 15.05. 11:40 7 2 - 30° NO
So, 15.05. 11:30 6 1 13 40° NO
So, 15.05. 11:00 7 2 14 60° NO
So, 15.05. 10:30 7 2 14 50° NO
So, 15.05. 10:00 7 2 14 40° NO
So, 15.05. 9:30 9 2 15 50° NO
Ortszeit Untergrenze Bedeckung Gattung
total tief tief mittel hoch
So, 15.05. 8:00 10500 m 4/8 0/8 - - -
So, 15.05. 2:00 9000 m 1/8 0/8 - - -
Sa, 14.05. 20:00 10500 m 7/8 0/8 - - -
Sa, 14.05. 14:00 - 0/8 0/8 - - -
Sa, 14.05. 8:00 - 0/8 0/8 - - -
Sa, 14.05. 2:00 9000 m 6/8 0/8 - - -
Fr, 13.05. 20:00 9000 m 8/8 0/8 - - -
Fr, 13.05. 14:00 10500 m 8/8 0/8 - - -
Ortszeit Bedeckungsgrad in Achtel und Wolkenuntergrenze
So, 15.05. 12:30 5(7200m) 7(8400m) 7(10500m)
So, 15.05. 12:20 5(7200m) 7(8400m) 7(10500m)
So, 15.05. 12:10 8
So, 15.05. 12:00 5(7500m) 7(8400m) 7(10500m)
So, 15.05. 11:50 5(7500m) 7(8400m) 7(10500m)
So, 15.05. 11:40 7
So, 15.05. 11:30 7(9000m) 8(10500m)
So, 15.05. 11:00 7(9000m)
So, 15.05. 10:30 5(9000m) 7(9000m)
So, 15.05. 10:00 4(9000m) 8(9000m)
So, 15.05. 9:30 7(10500m)
Ortszeit Luftdruck NN (hPa) Tendenz (hPa in 3 Std.)
So, 15.05. 8:00 1021 + 0,6
So, 15.05. 2:00 1021 + 0,2
Sa, 14.05. 20:00 1019 - 0,3
Sa, 14.05. 14:00 1021 - 0,9
Sa, 14.05. 8:00 1022 + 0,9
Sa, 14.05. 2:00 1022 + 0,5
Fr, 13.05. 20:00 1020 - 0,2
Fr, 13.05. 14:00 1021 - 0,1
Ortszeit Luftdruck NN (hPa) Tendenz (hPa in 3 Std.)
So, 15.05. 12:30 1019 - 0,7
So, 15.05. 12:20 1019 keine Meldung
So, 15.05. 12:10 1020 keine Meldung
So, 15.05. 12:00 1020 - 0,5
So, 15.05. 11:50 1020 keine Meldung
So, 15.05. 11:40 1020 keine Meldung
So, 15.05. 11:30 1020 - 0,6
So, 15.05. 11:00 1020 - 0,4
So, 15.05. 10:30 1020 0,0
So, 15.05. 10:00 1020 + 0,1
So, 15.05. 9:30 1020 + 0,2
Ortszeit Schneehöhe (cm)
So, 15.05. 8:00 0
So, 15.05. 2:00 0
Sa, 14.05. 20:00 0
Sa, 14.05. 14:00 0
Sa, 14.05. 8:00 0
Sa, 14.05. 2:00 0
Fr, 13.05. 20:00 0
Fr, 13.05. 14:00 0
Ortszeit Schneehöhe (cm)
So, 15.05. 12:30 0
So, 15.05. 12:20 0
So, 15.05. 12:10 0
So, 15.05. 12:00 0
So, 15.05. 11:50 0
So, 15.05. 11:40 0
So, 15.05. 11:30 0
So, 15.05. 11:00 0
So, 15.05. 10:30 0
So, 15.05. 10:00 0
So, 15.05. 9:30 0
Link zu dieser Seite / Seite empfehlen

Das Wetter in ...